Malaga, Spain

7:01 AM CEST on April 28, 2017 (GMT +0200)
Malaga

Weather History for LEMG - April, 2013

Change the Weather History Date:

Thursday, April 11, 2013

  Actual Average Record
Temperature  
Mean Temperature 68 °F -  
Max Temperature 80 °F 71 °F 80 °F (2013)
Min Temperature 57 °F 53 °F 42 °F (2004)
Cooling Degree Days 4    
Growing Degree Days 18 (Base 50)    
Moisture  
Dew Point 52 °F    
Average Humidity 60    
Maximum Humidity 94    
Minimum Humidity 36    
Precipitation  
Precipitation 0.00 in 0.04 in - ()
Sea Level Pressure  
Sea Level Pressure 30.02 in    
Wind  
Wind Speed 10 mph ()    
Max Wind Speed 16 mph    
Max Gust Speed -    
Visibility 7.4 miles    
Events      
Averages and records for this station are not official NWS values.
T = Trace of Precipitation, MM = Missing Value Source: Averaged Metar Reports

Daily Weather History Graph

Daily Weather History Graph

Search for Another Location

Airport or City:

Trip Planner

Search our weather history database for the weather conditions in past years. The results will help you decide how hot, cold, wet, or windy it might be!

Date:

Astronomy

Apr. 11, 2013 Rise Set
Actual Time 7:49 AM CEST 8:48 PM CEST
Civil Twilight 7:23 AM CEST 9:15 PM CEST
Nautical Twilight 6:51 AM CEST 9:46 PM CEST
Astronomical Twilight 6:19 AM CEST 10:19 PM CEST
Moon 8:14 AM CEST (4/11) 10:06 PM CEST (4/11)
Length of Visible Light 13h 52m
Length of Day
12h 59m
New Moon, 1% of the Moon is Illuminated
Apr 11
New Moon
Apr 18
First Quarter
Apr 25
Full
May 2
Last Quarter
May 10
New

Hourly Weather History & Observations

Time (CEST) Temp. Dew Point Humidity Pressure Visibility Wind Dir Wind Speed Gust Speed Precip Events Conditions
12:00 AM 66.2 °F 53.6 °F 64% 30.09 in - West 12.7 mph - N/A   Clear
12:30 AM 66.2 °F 53.6 °F 64% 30.09 in - West 12.7 mph - N/A   Clear
1:00 AM 66.2 °F 53.6 °F 64% 30.09 in - West 13.8 mph - N/A   Clear
1:30 AM 66.2 °F 53.6 °F 64% 30.06 in - West 12.7 mph - N/A   Clear
2:00 AM 66 °F 53 °F 54% 30.08 in 16 mi West 13.8 mph - -   Clear
2:00 AM 64.4 °F 53.6 °F 68% 30.06 in - West 13.8 mph - N/A   Clear
2:30 AM 64.4 °F 53.6 °F 68% 30.06 in - West 12.7 mph - N/A   Clear
3:00 AM 64.4 °F 53.6 °F 68% 30.04 in - West 13.8 mph - N/A   Clear
3:30 AM 64.4 °F 53.6 °F 68% 30.04 in - West 11.5 mph - N/A   Clear
4:00 AM 64.4 °F 53.6 °F 68% 30.04 in - West 12.7 mph - N/A   Clear
4:30 AM 59.0 °F 53.6 °F 82% 30.04 in - NW 6.9 mph - N/A   Clear
5:00 AM 57.2 °F 53.6 °F 88% 30.04 in - WNW 9.2 mph - N/A   Clear
5:30 AM 57.2 °F 53.6 °F 88% 30.04 in - WNW 9.2 mph - N/A   Clear
6:00 AM 57.2 °F 53.6 °F 88% 30.01 in - NW 6.9 mph - N/A   Clear
6:30 AM 57.2 °F 53.6 °F 88% 30.01 in - WNW 6.9 mph - N/A   Clear
7:00 AM 55.4 °F 53.6 °F 94% 30.01 in - WNW 9.2 mph - N/A   Clear
7:30 AM 55.4 °F 53.6 °F 94% 30.01 in - WNW 10.4 mph - N/A   Clear
8:00 AM 59 °F 53 °F 76% 30.03 in 16 mi WNW 10.4 mph - -   Clear
8:00 AM 57.2 °F 53.6 °F 88% 30.01 in - WNW 10.4 mph - N/A   Clear
8:30 AM 59.0 °F 53.6 °F 82% 30.04 in 6.2 mi NW 8.1 mph - N/A   Partly Cloudy
9:00 AM 62.6 °F 53.6 °F 72% 30.04 in 6.2 mi West 15.0 mph - N/A   Partly Cloudy
9:30 AM 62.6 °F 53.6 °F 72% 30.04 in 6.2 mi West 13.8 mph - N/A   Partly Cloudy
10:00 AM 64.4 °F 53.6 °F 68% 30.04 in - West 15.0 mph - N/A   Clear
10:30 AM 66.2 °F 53.6 °F 64% 30.04 in 6.2 mi West 13.8 mph - N/A   Partly Cloudy
11:00 AM 68.0 °F 53.6 °F 60% 30.04 in - West 12.7 mph - N/A   Clear
11:30 AM 69.8 °F 53.6 °F 56% 30.04 in - West 11.5 mph - N/A   Clear
12:00 PM 69.8 °F 53.6 °F 56% 30.04 in - West 8.1 mph - N/A   Clear
12:30 PM 71.6 °F 55.4 °F 57% 30.04 in - West 2.3 mph - N/A   Clear
1:00 PM 73.4 °F 53.6 °F 50% 30.04 in - Variable 3.5 mph - N/A   Clear
1:30 PM 71.6 °F 53.6 °F 53% 30.01 in 6.2 mi SSE 8.1 mph - N/A   Partly Cloudy
2:00 PM 73 °F 52 °F 37% 30.02 in 19 mi SSE 6.9 mph - -   Scattered Clouds
2:00 PM 71.6 °F 55.4 °F 57% 30.01 in 6.2 mi SSE 6.9 mph - N/A   Partly Cloudy
2:30 PM 75.2 °F 53.6 °F 47% 30.01 in 6.2 mi SE 5.8 mph - N/A   Partly Cloudy
3:00 PM 77.0 °F 55.4 °F 47% 29.98 in 6.2 mi SSE 5.8 mph - N/A   Partly Cloudy
3:30 PM 78.8 °F 51.8 °F 39% 29.98 in 6.2 mi West 8.1 mph - N/A   Partly Cloudy
4:00 PM 78.8 °F 51.8 °F 39% 29.98 in 6.2 mi NW 9.2 mph - N/A   Partly Cloudy
4:30 PM 77.0 °F 50.0 °F 39% 29.98 in 6.2 mi NW 8.1 mph - N/A   Partly Cloudy
5:00 PM 78.8 °F 50.0 °F 36% 29.98 in 6.2 mi WNW 9.2 mph - N/A   Partly Cloudy
5:30 PM 78.8 °F 51.8 °F 39% 29.95 in 6.2 mi NW 8.1 mph - N/A   Partly Cloudy
6:00 PM 77.0 °F 50.0 °F 39% 29.95 in 6.2 mi NW 8.1 mph - N/A   Partly Cloudy
6:30 PM 77.0 °F 50.0 °F 39% 29.98 in 6.2 mi NNW 10.4 mph - N/A   Partly Cloudy
7:00 PM 75.2 °F 50.0 °F 41% 29.98 in 6.2 mi NNW 10.4 mph - N/A   Partly Cloudy
7:30 PM 75.2 °F 48.2 °F 38% 29.98 in 6.2 mi NNW 10.4 mph - N/A   Partly Cloudy
8:00 PM 75 °F 53 °F 36% 29.99 in 25 mi NW 12.7 mph - -   Scattered Clouds
8:00 PM 73.4 °F 48.2 °F 41% 29.98 in 6.2 mi NW 12.7 mph - N/A   Partly Cloudy
8:30 PM 71.6 °F 48.2 °F 43% 29.98 in 6.2 mi NNW 12.7 mph - N/A   Partly Cloudy
9:00 PM 68.0 °F 50.0 °F 52% 30.01 in 6.2 mi NW 10.4 mph - N/A   Partly Cloudy
9:30 PM 66.2 °F 50.0 °F 56% 30.01 in 6.2 mi WNW 12.7 mph - N/A   Partly Cloudy
10:00 PM 66.2 °F 50.0 °F 56% 30.04 in 6.2 mi WNW 16.1 mph - N/A   Partly Cloudy
10:30 PM 66.2 °F 50.0 °F 56% 30.04 in 6.2 mi NW 11.5 mph - N/A   Partly Cloudy
11:00 PM 64.4 °F 50.0 °F 59% 30.04 in 6.2 mi WNW 13.8 mph - N/A   Partly Cloudy
11:30 PM 64.4 °F 50.0 °F 59% 30.06 in - WNW 10.4 mph - N/A   Clear